This is the latest recevied weather packets stored in our database for station/object KD7CTY. If no packets are shown the sender has not sent any weather packets the latest 10 day(s).
| Time | Temp. | Humidity | Pressure | Rain* | Wind** | Luminosity | Snow |
|---|---|---|---|---|---|---|---|
| 1777781725 | 18.33° C | 54% | 1012.7 hPa | 0 mm | - | 0 W/m² | - |
| 1777781423 | 18.33° C | 53% | 1012.6 hPa | 0 mm | - | 0 W/m² | - |
| 1777781120 | 18.33° C | 53% | 1012.7 hPa | 0 mm | - | 0 W/m² | - |
| 1777780817 | 18.89° C | 52% | 1012.6 hPa | 0 mm | - | 0 W/m² | - |
| 1777780514 | 18.89° C | 51% | 1012.5 hPa | 0 mm | - | 0 W/m² | - |
| 1777780211 | 19.44° C | 51% | 1012.4 hPa | 0 mm | - | 0 W/m² | - |
| 1777779908 | 19.44° C | 50% | 1012.3 hPa | 0 mm | - | 0 W/m² | - |
| 1777779605 | 19.44° C | 50% | 1012.5 hPa | 0 mm | - | 0 W/m² | - |
| 1777779302 | 19.44° C | 50% | 1012.4 hPa | 0 mm | - | 0 W/m² | - |
| 1777779000 | 19.44° C | 49% | 1012.3 hPa | 0 mm | - | 1 W/m² | - |
| 1777778699 | 20° C | 48% | 1012.2 hPa | 0 mm | - | 2 W/m² | - |
| 1777778396 | 20° C | 48% | 1012.2 hPa | 0 mm | - | 4 W/m² | - |
| 1777778094 | 20° C | 48% | 1012.2 hPa | 0 mm | - | 6 W/m² | - |
| 1777777790 | 20.56° C | 48% | 1012.3 hPa | 0 mm | - | 10 W/m² | - |
| 1777777487 | 20.56° C | 47% | 1012.1 hPa | 0 mm | - | 11 W/m² | - |
| 1777777184 | 20.56° C | 47% | 1012 hPa | 0 mm | - | 15 W/m² | - |
| 1777776880 | 21.11° C | 46% | 1011.8 hPa | 0 mm | - | 18 W/m² | - |
| 1777776578 | 21.11° C | 46% | 1011.7 hPa | 0 mm | - | 21 W/m² | - |
| 1777776274 | 21.67° C | 46% | 1012 hPa | 0 mm | - | 23 W/m² | - |
| 1777775972 | 21.67° C | 46% | 1011.9 hPa | 0 mm | - | 28 W/m² | - |
| 1777775669 | 22.22° C | 45% | 1011.8 hPa | 0 mm | - | 30 W/m² | - |
| 1777775365 | 22.22° C | 45% | 1011.9 hPa | 0 mm | - | 34 W/m² | - |
| 1777775060 | 22.22° C | 45% | 1012 hPa | 0 mm | - | 38 W/m² | - |
| 1777774756 | 22.78° C | 45% | 1011.9 hPa | 0 mm | - | 38 W/m² | - |
| 1777774452 | 22.78° C | 45% | 1011.8 hPa | 0 mm | - | 51 W/m² | - |
* Rain latest hour (hover to see other rain measurements)
** Current wind speed in m/s (hover to see current wind gust speed)